Time,TemperatureF,DewpointF,PressureIn,WindDirection,WindDirectionDegrees,WindSpeedMPH,WindSpeedGustMPH,Humidity,HourlyPrecipIn,Conditions,Clouds,dailyrainin,SoftwareType,DateUTC
2013-02-18 00:00:00,34.0,-99.9,-100.00,SSE,164,11.0,-999.0,-999,0.00,,,0.00,,2013-02-18 06:00:00,
2013-02-18 00:22:00,34.0,-99.9,-100.00,SSE,164,11.0,-999.0,-999,0.00,,,0.00,,2013-02-18 06:22:00,
2013-02-18 00:32:00,34.0,-99.9,-100.00,SSE,164,11.0,-999.0,-999,0.00,,,0.00,,2013-02-18 06:32:00,
2013-02-18 00:42:00,34.0,-99.9,-100.00,SSE,164,11.0,-999.0,-999,0.00,,,0.00,,2013-02-18 06:42:00,
2013-02-18 00:52:00,34.0,-99.9,-100.00,SSE,164,11.0,-999.0,-999,0.00,,,0.00,,2013-02-18 06:52:00,
2013-02-18 01:00:00,34.0,-99.9,-100.00,SSE,159,11.0,-999.0,-999,0.00,,,0.00,,2013-02-18 07:00:00,
2013-02-18 01:32:00,34.0,-99.9,-100.00,SSE,159,11.0,-999.0,-999,0.00,,,0.00,,2013-02-18 07:32:00,
2013-02-18 01:42:00,34.0,-99.9,-100.00,SSE,159,11.0,-999.0,-999,0.00,,,0.00,,2013-02-18 07:42:00,
2013-02-18 01:52:00,34.0,-99.9,-100.00,SSE,159,11.0,-999.0,-999,0.00,,,0.00,,2013-02-18 07:52:00,
2013-02-18 02:00:00,34.0,-99.9,-100.00,SSE,165,10.0,-999.0,-999,0.00,,,0.00,,2013-02-18 08:00:00,
2013-02-18 02:22:00,34.0,-99.9,-100.00,SSE,165,10.0,-999.0,-999,0.00,,,0.00,,2013-02-18 08:22:00,
2013-02-18 02:33:00,34.0,-99.9,-100.00,SSE,165,10.0,-999.0,-999,0.00,,,0.00,,2013-02-18 08:33:00,
2013-02-18 02:42:00,34.0,-99.9,-100.00,SSE,165,10.0,-999.0,-999,0.00,,,0.00,,2013-02-18 08:42:00,
2013-02-18 02:52:00,34.0,-99.9,-100.00,SSE,165,10.0,-999.0,-999,0.00,,,0.00,,2013-02-18 08:52:00,
2013-02-18 03:00:00,34.0,-99.9,-100.00,South,175,10.0,-999.0,-999,0.00,,,0.00,,2013-02-18 09:00:00,
2013-02-18 03:22:00,34.0,-99.9,-100.00,South,175,10.0,-999.0,-999,0.00,,,0.00,,2013-02-18 09:22:00,
2013-02-18 03:32:00,34.0,-99.9,-100.00,South,175,10.0,-999.0,-999,0.00,,,0.00,,2013-02-18 09:32:00,
2013-02-18 03:42:00,34.0,-99.9,-100.00,South,175,10.0,-999.0,-999,0.00,,,0.00,,2013-02-18 09:42:00,
2013-02-18 03:52:00,34.0,-99.9,-100.00,South,175,10.0,-999.0,-999,0.00,,,0.00,,2013-02-18 09:52:00,
2013-02-18 04:00:00,35.0,-99.9,-100.00,SSE,165,10.0,-999.0,-999,0.00,,,0.00,,2013-02-18 10:00:00,
2013-02-18 04:22:00,35.0,-99.9,-100.00,SSE,165,10.0,-999.0,-999,0.00,,,0.00,,2013-02-18 10:22:00,
2013-02-18 04:32:00,35.0,-99.9,-100.00,SSE,165,10.0,-999.0,-999,0.00,,,0.00,,2013-02-18 10:32:00,
2013-02-18 04:43:00,35.0,-99.9,-100.00,SSE,165,10.0,-999.0,-999,0.00,,,0.00,,2013-02-18 10:43:00,
2013-02-18 04:54:00,35.0,-99.9,-100.00,SSE,165,10.0,-999.0,-999,0.00,,,0.00,,2013-02-18 10:54:00,
2013-02-18 05:00:00,35.0,-99.9,-100.00,SSE,161,10.0,-999.0,-999,0.00,,,0.00,,2013-02-18 11:00:00,
2013-02-18 05:22:00,35.0,-99.9,-100.00,SSE,161,10.0,-999.0,-999,0.00,,,0.00,,2013-02-18 11:22:00,
2013-02-18 05:33:00,35.0,-99.9,-100.00,SSE,161,10.0,-999.0,-999,0.00,,,0.00,,2013-02-18 11:33:00,
2013-02-18 05:43:00,35.0,-99.9,-100.00,SSE,161,10.0,-999.0,-999,0.00,,,0.00,,2013-02-18 11:43:00,
2013-02-18 05:54:00,35.0,-99.9,-100.00,SSE,161,10.0,-999.0,-999,0.00,,,0.00,,2013-02-18 11:54:00,
2013-02-18 06:00:00,35.0,-99.9,-100.00,SSE,167,8.0,-999.0,-999,0.00,,,0.00,,2013-02-18 12:00:00,
2013-02-18 06:22:00,35.0,-99.9,-100.00,SSE,167,8.0,-999.0,-999,0.00,,,0.00,,2013-02-18 12:22:00,
2013-02-18 06:32:00,35.0,-99.9,-100.00,SSE,167,8.0,-999.0,-999,0.00,,,0.00,,2013-02-18 12:32:00,
2013-02-18 06:42:00,35.0,-99.9,-100.00,SSE,167,8.0,-999.0,-999,0.00,,,0.00,,2013-02-18 12:42:00,
2013-02-18 06:54:00,35.0,-99.9,-100.00,SSE,167,8.0,-999.0,-999,0.00,,,0.00,,2013-02-18 12:54:00,
2013-02-18 07:00:00,34.0,-99.9,-100.00,SSE,151,10.0,-999.0,-999,0.00,,,0.00,,2013-02-18 13:00:00,
2013-02-18 07:23:00,34.0,-99.9,-100.00,SSE,151,10.0,-999.0,-999,0.00,,,0.00,,2013-02-18 13:23:00,
2013-02-18 07:33:00,34.0,-99.9,-100.00,SSE,151,10.0,-999.0,-999,0.00,,,0.00,,2013-02-18 13:33:00,
2013-02-18 07:43:00,34.0,-99.9,-100.00,SSE,151,10.0,-999.0,-999,0.00,,,0.00,,2013-02-18 13:43:00,
2013-02-18 07:53:00,34.0,-99.9,-100.00,SSE,151,10.0,-999.0,-999,0.00,,,0.00,,2013-02-18 13:53:00,
2013-02-18 08:00:00,37.0,-99.9,-100.00,South,172,12.0,-999.0,-999,0.00,,,0.00,,2013-02-18 14:00:00,
2013-02-18 08:22:00,37.0,-99.9,-100.00,South,172,12.0,-999.0,-999,0.00,,,0.00,,2013-02-18 14:22:00,
2013-02-18 08:34:00,37.0,-99.9,-100.00,South,172,12.0,-999.0,-999,0.00,,,0.00,,2013-02-18 14:34:00,
2013-02-18 08:42:00,37.0,-99.9,-100.00,South,172,12.0,-999.0,-999,0.00,,,0.00,,2013-02-18 14:42:00,
2013-02-18 08:54:00,37.0,-99.9,-100.00,South,172,12.0,-999.0,-999,0.00,,,0.00,,2013-02-18 14:54:00,
2013-02-18 09:00:00,40.0,-99.9,-100.00,South,172,10.0,-999.0,-999,0.00,,,0.00,,2013-02-18 15:00:00,
2013-02-18 09:22:00,40.0,-99.9,-100.00,South,172,10.0,-999.0,-999,0.00,,,0.00,,2013-02-18 15:22:00,
2013-02-18 09:32:00,40.0,-99.9,-100.00,South,172,10.0,-999.0,-999,0.00,,,0.00,,2013-02-18 15:32:00,
2013-02-18 09:42:00,40.0,-99.9,-100.00,South,172,10.0,-999.0,-999,0.00,,,0.00,,2013-02-18 15:42:00,
2013-02-18 09:53:00,40.0,-99.9,-100.00,South,172,10.0,-999.0,-999,0.00,,,0.00,,2013-02-18 15:53:00,
2013-02-18 10:00:00,45.0,-99.9,-100.00,South,175,10.0,-999.0,-999,0.00,,,0.00,,2013-02-18 16:00:00,
2013-02-18 10:23:00,45.0,-99.9,-100.00,South,175,10.0,-999.0,-999,0.00,,,0.00,,2013-02-18 16:23:00,
2013-02-18 10:33:00,45.0,-99.9,-100.00,South,175,10.0,-999.0,-999,0.00,,,0.00,,2013-02-18 16:33:00,
2013-02-18 10:43:00,45.0,-99.9,-100.00,South,175,10.0,-999.0,-999,0.00,,,0.00,,2013-02-18 16:43:00,
2013-02-18 10:54:00,45.0,-99.9,-100.00,South,175,10.0,-999.0,-999,0.00,,,0.00,,2013-02-18 16:54:00,
2013-02-18 11:00:00,50.0,-99.9,-100.00,SSW,201,9.0,-999.0,-999,0.00,,,0.00,,2013-02-18 17:00:00,
2013-02-18 11:33:00,50.0,-99.9,-100.00,SSW,201,9.0,-999.0,-999,0.00,,,0.00,,2013-02-18 17:33:00,
2013-02-18 11:43:00,50.0,-99.9,-100.00,SSW,201,9.0,-999.0,-999,0.00,,,0.00,,2013-02-18 17:43:00,
2013-02-18 11:53:00,50.0,-99.9,-100.00,SSW,201,9.0,-999.0,-999,0.00,,,0.00,,2013-02-18 17:53:00,
2013-02-18 12:00:00,48.0,-99.9,-100.00,WSW,237,9.0,-999.0,-999,0.00,,,0.00,,2013-02-18 18:00:00,
2013-02-18 12:23:00,48.0,-99.9,-100.00,WSW,237,9.0,-999.0,-999,0.00,,,0.00,,2013-02-18 18:23:00,
2013-02-18 12:33:00,48.0,-99.9,-100.00,WSW,237,9.0,-999.0,-999,0.00,,,0.00,,2013-02-18 18:33:00,
2013-02-18 12:43:00,48.0,-99.9,-100.00,WSW,237,9.0,-999.0,-999,0.00,,,0.00,,2013-02-18 18:43:00,
2013-02-18 12:53:00,48.0,-99.9,-100.00,WSW,237,9.0,-999.0,-999,0.00,,,0.00,,2013-02-18 18:53:00,
2013-02-18 13:00:00,46.0,-99.9,-100.00,WSW,239,10.0,-999.0,-999,0.00,,,0.00,,2013-02-18 19:00:00,
2013-02-18 13:34:00,46.0,-99.9,-100.00,WSW,239,10.0,-999.0,-999,0.00,,,0.00,,2013-02-18 19:34:00,
2013-02-18 13:43:00,46.0,-99.9,-100.00,WSW,239,10.0,-999.0,-999,0.00,,,0.00,,2013-02-18 19:43:00,
2013-02-18 13:53:00,46.0,-99.9,-100.00,WSW,239,10.0,-999.0,-999,0.00,,,0.00,,2013-02-18 19:53:00,
2013-02-18 14:24:00,42.0,-99.9,-100.00,WNW,293,12.0,-999.0,-999,0.00,,,0.00,,2013-02-18 20:24:00,
2013-02-18 14:34:00,42.0,-99.9,-100.00,WNW,293,12.0,-999.0,-999,0.00,,,0.00,,2013-02-18 20:34:00,
2013-02-18 14:43:00,42.0,-99.9,-100.00,WNW,293,12.0,-999.0,-999,0.00,,,0.00,,2013-02-18 20:43:00,
2013-02-18 14:53:00,42.0,-99.9,-100.00,WNW,293,12.0,-999.0,-999,0.00,,,0.00,,2013-02-18 20:53:00,
2013-02-18 15:00:00,40.0,-99.9,-100.00,NW,318,23.0,-999.0,-999,0.00,,,0.00,,2013-02-18 21:00:00,
2013-02-18 15:23:00,40.0,-99.9,-100.00,NW,318,23.0,-999.0,-999,0.00,,,0.00,,2013-02-18 21:23:00,
2013-02-18 15:33:00,40.0,-99.9,-100.00,NW,318,23.0,-999.0,-999,0.00,,,0.00,,2013-02-18 21:33:00,
2013-02-18 15:43:00,40.0,-99.9,-100.00,NW,318,23.0,-999.0,-999,0.00,,,0.00,,2013-02-18 21:43:00,
2013-02-18 15:54:00,40.0,-99.9,-100.00,NW,318,23.0,-999.0,-999,0.00,,,0.00,,2013-02-18 21:54:00,
2013-02-18 16:00:00,35.0,-99.9,-100.00,NW,321,21.0,-999.0,-999,0.00,,,0.00,,2013-02-18 22:00:00,
2013-02-18 16:23:00,35.0,-99.9,-100.00,NW,321,21.0,-999.0,-999,0.00,,,0.00,,2013-02-18 22:23:00,
2013-02-18 16:34:00,35.0,-99.9,-100.00,NW,321,21.0,-999.0,-999,0.00,,,0.00,,2013-02-18 22:34:00,
2013-02-18 16:54:00,35.0,-99.9,-100.00,NW,321,21.0,-999.0,-999,0.00,,,0.00,,2013-02-18 22:54:00,
2013-02-18 17:00:00,32.0,-99.9,-100.00,ESE,117,89.0,-999.0,-999,0.00,,,0.00,,2013-02-18 23:00:00,
2013-02-18 17:23:00,32.0,-99.9,-100.00,ESE,117,89.0,-999.0,-999,0.00,,,0.00,,2013-02-18 23:23:00,
2013-02-18 17:34:00,32.0,-99.9,-100.00,ESE,117,89.0,-999.0,-999,0.00,,,0.00,,2013-02-18 23:34:00,
2013-02-18 17:44:00,32.0,-99.9,-100.00,ESE,117,89.0,-999.0,-999,0.00,,,0.00,,2013-02-18 23:44:00,
2013-02-18 17:54:00,32.0,-99.9,-100.00,ESE,117,89.0,-999.0,-999,0.00,,,0.00,,2013-02-18 23:54:00,
2013-02-18 18:00:00,28.0,-99.9,-100.00,NE,48,123.0,-999.0,-999,0.00,,,0.00,,2013-02-19 00:00:00,
2013-02-18 18:23:00,28.0,-99.9,-100.00,NE,48,123.0,-999.0,-999,0.00,,,0.00,,2013-02-19 00:23:00,
2013-02-18 18:36:00,28.0,-99.9,-100.00,NE,48,123.0,-999.0,-999,0.00,,,0.00,,2013-02-19 00:36:00,
2013-02-18 18:44:00,28.0,-99.9,-100.00,NE,48,123.0,-999.0,-999,0.00,,,0.00,,2013-02-19 00:44:00,
2013-02-18 18:55:00,28.0,-99.9,-100.00,NE,48,123.0,-999.0,-999,0.00,,,0.00,,2013-02-19 00:55:00,
2013-02-18 19:00:00,27.0,-99.9,-100.00,NNE,12,105.0,-999.0,-999,0.00,,,0.00,,2013-02-19 01:00:00,
2013-02-18 19:25:00,27.0,-99.9,-100.00,NNE,12,105.0,-999.0,-999,0.00,,,0.00,,2013-02-19 01:25:00,
2013-02-18 19:35:00,27.0,-99.9,-100.00,NNE,12,105.0,-999.0,-999,0.00,,,0.00,,2013-02-19 01:35:00,
2013-02-18 19:46:00,27.0,-99.9,-100.00,NNE,12,105.0,-999.0,-999,0.00,,,0.00,,2013-02-19 01:46:00,
2013-02-18 19:57:00,27.0,-99.9,-100.00,NNE,12,105.0,-999.0,-999,0.00,,,0.00,,2013-02-19 01:57:00,
2013-02-18 20:00:00,23.0,-99.9,-100.00,NW,305,34.0,-999.0,-999,0.00,,,0.00,,2013-02-19 02:00:00,
2013-02-18 20:23:00,23.0,-99.9,-100.00,NW,305,34.0,-999.0,-999,0.00,,,0.00,,2013-02-19 02:23:00,
2013-02-18 20:36:00,23.0,-99.9,-100.00,NW,305,34.0,-999.0,-999,0.00,,,0.00,,2013-02-19 02:36:00,
2013-02-18 20:44:00,23.0,-99.9,-100.00,NW,305,34.0,-999.0,-999,0.00,,,0.00,,2013-02-19 02:44:00,
2013-02-18 20:56:00,23.0,-99.9,-100.00,NW,305,34.0,-999.0,-999,0.00,,,0.00,,2013-02-19 02:56:00,
2013-02-18 21:00:00,21.0,-99.9,-100.00,NW,307,31.0,-999.0,-999,0.00,,,0.00,,2013-02-19 03:00:00,
2013-02-18 21:25:00,21.0,-99.9,-100.00,NW,307,31.0,-999.0,-999,0.00,,,0.00,,2013-02-19 03:25:00,
2013-02-18 21:36:00,21.0,-99.9,-100.00,NW,307,31.0,-999.0,-999,0.00,,,0.00,,2013-02-19 03:36:00,
2013-02-18 21:46:00,21.0,-99.9,-100.00,NW,307,31.0,-999.0,-999,0.00,,,0.00,,2013-02-19 03:46:00,
2013-02-18 21:56:00,21.0,-99.9,-100.00,NW,307,31.0,-999.0,-999,0.00,,,0.00,,2013-02-19 03:56:00,
2013-02-18 22:00:00,18.0,-99.9,-100.00,NW,321,26.0,-999.0,-999,0.00,,,0.00,,2013-02-19 04:00:00,
2013-02-18 22:24:00,18.0,-99.9,-100.00,NW,321,26.0,-999.0,-999,0.00,,,0.00,,2013-02-19 04:24:00,
2013-02-18 22:35:00,18.0,-99.9,-100.00,NW,321,26.0,-999.0,-999,0.00,,,0.00,,2013-02-19 04:35:00,
2013-02-18 22:45:00,18.0,-99.9,-100.00,NW,321,26.0,-999.0,-999,0.00,,,0.00,,2013-02-19 04:45:00,
2013-02-18 22:56:00,18.0,-99.9,-100.00,NW,321,26.0,-999.0,-999,0.00,,,0.00,,2013-02-19 04:56:00,
2013-02-18 23:00:00,17.0,-99.9,-100.00,NW,308,29.0,-999.0,-999,0.00,,,0.00,,2013-02-19 05:00:00,
2013-02-18 23:23:00,17.0,-99.9,-100.00,NW,308,29.0,-999.0,-999,0.00,,,0.00,,2013-02-19 05:23:00,
2013-02-18 23:33:00,17.0,-99.9,-100.00,NW,308,29.0,-999.0,-999,0.00,,,0.00,,2013-02-19 05:33:00,
2013-02-18 23:43:00,17.0,-99.9,-100.00,NW,308,29.0,-999.0,-999,0.00,,,0.00,,2013-02-19 05:43:00,
2013-02-18 23:53:00,17.0,-99.9,-100.00,NW,308,29.0,-999.0,-999,0.00,,,0.00,,2013-02-19 05:53:00,